sat.trackr.live / text

‹ back to catalog

STARLINK-31501

NORAD 59359 · 2024-060M

PAYLOAD ACTIVE UNKNOWN

§ Identity

Operator
Country
US
Launch date
2024-03-31
Launch site
AFETR
Launch vehicle
Mass (kg)
RCS (m²)

Purposes: comms

External: N2YO · Heavens-Above · Gunter

§ Orbital elements

Epoch: 2026-05-24T11:54:18.345888Z

Period
94.27 min
Inclination
42.9994°
Eccentricity
0.0001173
Mean motion
15.27574273 rev/d
Perigee alt
482.3 km
Apogee alt
483.9 km
Semi-major
6,861.2 km
B*
-1.4979e-5
RAAN
191.9862°
Arg perigee
271.3433°
Mean anomaly
88.7284°
Rev number
12,165

§ Raw data

STARLINK-315011 59359U 24060M   26144.49604567 -.00000674  00000+0 -14979-4 0  99932 59359  42.9994 191.9862 0001173 271.3433  88.7284 15.27574273121656

JSON: /api/v1/satellites/59359 · /tle

For live sub-satellite position, see the globe view (requires WebGL).

§ Visibility from observer

Set your observer location to see the next 7 days of passes ≥ 10°. The values pass through the URL so the page stays shareable.

No JS? Fill the form by hand. The geolocation button needs JavaScript.